CAPE
0 0 0 0 0 0 0 0 0 0 0 0 0 0 0 0 0 0 0 0 0 0 0 0 0 0 0 0 0 0 0 0 0 0 0 0 0 0 0 0 0 43 24 85 16
1 1 0 1 0 0 0 0 0 0 0 0 0 1 2 0 0 0 0 0 0 0 0 0 0 0 0 0 0 0 0 0 0 0 0 0 0 0 0 0 0 20 84 25 62
2 1 0 0 0 0 0 0 0 0 0 0 0 0 2 0 0 0 0 0 0 0 0 0 0 0 0 0 0 0 0 0 0 0 0 0 0 0 0 0 0 7 139 72 117
1 2 1 0 0 0 0 0 0 0 0 0 0 0 0 0 0 0 0 0 0 0 0 0 0 0 0 0 0 0 0 0 0 0 0 0 1 0 0 0 0 0 2 32 117
0 0 0 0 0 0 0 0 0 0 0 0 0 2 0 0 0 0 0 0 0 0 0 0 0 0 0 0 0 0 0 0 0 0 0 0 0 4 0 0 0 0 0 1 174
0 0 0 0 0 0 0 0 0 0 0 0 0 0 0 0 0 0 0 0 0 0 0 0 0 0 0 0 0 0 0 0 0 0 0 0 0 81 0 0 0 2 0 0 142
0 0 0 0 0 0 0 0 0 0 0 0 0 0 0 0 0 0 0 0 0 0 0 0 0 0 0 2 8 1 0 0 0 0 0 4 0 1 0 0 0 30 64 24 20
0 0 0 0 0 0 0 0 0 0 0 0 0 0 0 0 0 0 0 0 0 0 0 0 0 1 5 5 1 1 0 0 0 0 0 46 0 0 3 0 0 69 133 191 0
0 0 0 0 0 0 0 0 0 0 0 0 0 0 0 0 0 0 0 0 0 0 0 0 2 0 0 1 1 1 0 0 0 0 0 20 0 0 0 0 0 7 255 272 96
0 0 0 0 0 0 0 0 0 0 0 0 0 0 0 0 0 0 0 0 0 0 0 0 0 0 0 0 0 0 1 0 0 0 0 75 1 1 0 0 0 0 9 107 61
0 0 0 0 0 0 0 0 0 0 0 0 0 0 0 0 0 0 0 0 0 0 0 0 0 0 0 1 1 1 1 0 0 0 8 41 21 0 0 0 0 0 0 1 0
0 0 0 0 0 0 0 0 0 0 0 0 0 0 0 0 0 0 0 0 0 0 0 0 0 0 0 1 2 0 0 0 0 0 0 33 1 0 0 5 0 0 0 0 1
0 0 0 0 0 0 0 0 0 0 0 0 0 0 0 0 0 0 0 0 0 0 0 0 0 0 0 1 0 0 0 0 1 6 3 4 2 5 3 0 0 0 0 0 3
0 0 0 0 0 0 0 0 0 0 0 0 0 0 0 0 0 0 0 0 0 0 0 0 0 0 0 1 0 0 0 1 1 0 0 0 0 0 3 2 0 0 0 0 0
0 0 0 0 0 0 0 0 0 0 0 0 0 0 0 0 0 0 0 0 0 0 0 0 0 0 0 0 0 0 0 0 2 0 0 0 0 0 0 0 3 4 0 0 0
0 0 0 0 0 0 0 0 0 0 0 0 0 0 0 0 0 0 0 0 0 0 0 0 0 0 0 0 0 0 0 0 0 0 0 0 0 0 1 1 1 4 4 0 0
0 0 0 0 0 0 0 0 0 0 0 0 0 0 0 0 0 0 0 0 0 0 0 0 0 0 0 0 0 0 0 0 0 0 0 0 0 1 1 2 2 0 0 0 1
0 0 0 0 0 0 0 0 0 0 0 0 0 0 0 0 0 0 0 0 0 0 0 0 0 0 0 0 0 0 0 0 0 0 0 0 0 0 0 1 0 0 0 0 0
0 0 0 0 0 0 0 0 0 0 0 0 0 0 0 0 0 0 0 0 0 0 0 0 0 0 0 0 0 0 0 0 0 0 0 0 0 0 1 0 0 0 0 0 0
0 0 0 0 0 0 0 0 0 0 0 0 0 0 0 0 0 0 0 0 0 0 0 0 0 0 0 0 0 0 0 0 0 0 0 0 0 0 0 0 0 0 0 0 0
0 0 0 0 0 0 0 0 0 0 0 0 0 0 0 0 0 0 0 0 0 0 0 0 0 0 0 0 0 0 0 0 0 0 0 0 0 0 0 0 0 0 0 0 0
0 0 0 0 0 0 0 0 0 0 0 0 0 0 0 0 0 0 0 0 0 0 0 0 0 0 0 0 0 0 0 0 0 0 0 0 0 0 0 0 0 0 0 0 0
0 0 1 0 0 0 0 0 0 0 0 0 0 0 0 0 0 0 0 0 0 0 0 1 0 0 0 0 0 0 0 0 0 0 0 0 0 0 0 0 0 0 0 0 0
0 0 0 2 0 0 0 0 0 0 0 0 0 0 0 0 0 0 0 0 0 0 0 0 0 0 0 0 0 0 0 0 0 0 0 0 0 0 0 0 0 0 0 0 0
0 0 0 0 0 0 0 0 0 0 0 0 0 0 0 0 0 0 0 0 0 0 0 0 0 0 0 0 0 0 0 0 0 0 0 0 0 0 0 0 0 0 0 0 0
0 0 0 0 0 0 0 0 0 0 0 0 0 0 0 0 0 0 0 0 0 0 0 0 0 0 0 0 0 0 0 0 0 0 0 0 0 0 0 0 0 0 0 0 0
0 0 0 0 0 0 0 0 0 0 0 0 0 0 0 0 0 0 0 0 0 0 0 0 0 0 0 0 0 0 0 0 0 0 0 0 0 0 0 0 0 0 0 0 0
CIN
0 0 0 0 0 0 0 0 0 0 0 0 0 0 0 0 0 0 0 0 0 0 0 0 0 0 0 0 0 0 0 0 0 0 0 0 0 0 0 0 0 -149 -152 -270 -465
0 0 0 0 0 0 0 0 0 0 0 0 0 0 0 0 0 0 0 0 0 0 0 0 0 0 0 0 0 0 0 0 0 0 0 0 0 0 0 0 0 -158 -291 -444 -433
0 0 0 0 0 0 0 0 0 0 0 0 0 0 0 0 0 0 0 0 0 0 0 0 0 0 0 0 0 0 0 0 0 0 0 0 0 0 0 0 0 -67 -133 -375 -380
0 0 0 0 0 0 0 0 0 0 0 0 0 0 0 0 0 0 0 0 0 0 0 0 0 0 0 0 0 0 0 0 0 0 0 0 -8 0 0 0 0 0 -65 -314 -317
0 0 0 0 0 0 0 0 0 0 0 0 0 0 0 0 0 0 0 0 0 0 0 0 0 0 0 0 0 0 0 0 0 0 0 0 0 -26 0 0 0 0 0 -101 -254
0 0 0 0 0 0 0 0 0 0 0 0 0 0 0 0 0 0 0 0 0 0 0 0 0 0 0 0 0 0 0 0 0 0 0 0 0 -50 0 0 0 -85 0 0 -248
0 0 0 0 0 0 0 0 0 0 0 0 0 0 0 0 0 0 0 0 0 0 0 0 0 0 -5 -3 -2 -2 0 0 0 0 0 -26 0 -3 0 0 0 -75 -150 -264 -365
0 0 0 0 0 0 0 0 0 0 0 0 0 0 0 0 0 0 0 0 0 0 0 0 0 -1 -4 -4 -2 -2 0 0 0 0 -4 -51 0 0 -28 0 0 -54 -110 -188 -121
0 0 0 0 0 0 0 0 0 0 0 0 0 0 0 0 0 0 0 0 0 0 0 0 -2 0 0 0 0 0 0 0 0 0 -5 -93 0 0 0 0 0 -62 -48 -75 -199
0 0 0 0 0 0 0 0 0 0 0 0 0 0 0 0 0 0 0 0 0 0 0 0 0 0 0 0 0 0 0 0 0 0 0 -41 -40 -8 0 0 0 0 -4 -38 -151
0 0 0 0 0 0 0 0 0 0 0 0 0 0 0 0 0 0 0 0 0 0 0 0 0 0 0 0 0 0 0 0 0 -30 0 -17 -24 0 0 0 0 0 0 0 0
0 0 0 0 0 0 0 0 0 0 0 0 0 0 0 0 0 0 0 0 0 0 0 0 0 0 0 -1 0 0 0 0 0 0 0 -1 -5 0 0 0 0 0 0 0 0
0 0 0 0 0 0 0 0 0 0 0 0 0 0 0 0 0 0 0 0 0 0 0 0 0 0 0 0 0 0 0 0 0 0 0 -23 -6 -11 0 0 0 0 0 0 0
0 0 0 0 0 0 0 0 0 0 0 0 0 0 0 0 0 0 0 0 0 0 0 0 0 0 0 0 0 0 0 0 -10 0 0 0 0 0 0 0 0 0 0 0 0
0 0 0 0 0 0 0 0 0 0 0 0 0 0 0 0 0 0 0 0 0 0 0 0 0 0 0 0 0 0 0 0 0 0 0 0 0 0 0 0 0 0 0 0 0
0 0 0 0 0 0 0 0 0 0 0 0 0 0 0 0 0 0 0 0 0 0 0 0 0 0 0 0 0 0 0 0 0 0 0 0 0 0 0 0 0 0 0 0 0
0 0 0 0 0 0 0 0 0 0 0 0 0 0 0 0 0 0 0 0 0 0 0 0 0 0 0 0 0 0 0 0 0 0 0 0 0 0 0 0 0 0 0 0 -8
0 0 0 0 0 0 0 0 0 0 0 0 0 0 0 0 0 0 0 0 0 0 0 0 0 0 0 0 0 0 0 0 0 0 0 0 0 0 0 0 0 0 -7 0 0
0 0 0 0 0 0 0 0 0 0 0 0 0 0 0 0 0 0 0 0 0 -3 0 0 0 0 0 0 0 0 0 0 0 0 0 0 0 0 -2 0 0 0 0 0 0
0 0 0 0 0 0 0 0 0 0 0 0 0 0 0 0 0 0 0 0 0 0 0 -2 0 0 0 0 0 0 0 0 0 0 0 0 0 0 0 0 0 0 0 0 0
0 0 0 0 0 0 0 0 0 0 0 0 0 0 0 0 0 0 0 0 0 0 -29 -5 0 0 0 0 0 0 0 0 0 0 0 0 0 0 0 0 0 0 0 0 0
0 0 0 0 0 0 0 0 0 0 0 0 0 0 0 0 0 0 0 0 0 -2 0 0 0 0 0 0 0 0 0 0 0 0 0 0 0 0 0 0 0 0 0 0 0
0 0 -10 0 0 0 0 0 0 0 0 0 0 0 0 0 0 0 0 0 0 0 0 -8 0 0 0 0 0 0 0 0 0 0 0 0 0 0 0 0 0 0 0 0 0
0 0 0 0 0 0 0 0 0 0 0 0 0 0 0 0 0 0 0 0 0 0 0 0 0 0 0 0 0 0 0 0 0 0 0 0 0 0 0 0 0 0 0 0 0
0 0 0 0 0 0 0 0 0 0 0 0 0 0 0 0 0 0 0 0 0 0 0 0 0 0 0 0 0 0 0 0 0 0 0 0 0 0 0 0 0 0 0 0 0
0 0 0 0 0 0 0 0 0 0 0 0 0 0 0 0 0 0 0 0 0 0 0 0 0 0 0 0 0 0 0 0 0 0 0 0 0 0 0 0 0 0 0 0 0
0 0 0 0 0 0 0 0 0 0 0 0 0 0 0 0 0 0 0 0 0 0 0 0 0 0 0 0 0 0 0 0 0 0 0 0 0 0 0 0 0 0 0 0 0
Wind_Speed
23 24 25 26 26 27 27 28 29 30 31 32 32 32 31 31 29 23 24 24 26 29 26 26 27 26 21 21 19 18 28 29 38 43 42 31 31 27 26 31 28 24 24 21 7
24 25 26 26 27 27 28 28 29 30 31 31 31 31 30 29 24 22 21 25 27 28 27 29 30 29 25 24 23 23 33 37 37 36 39 39 38 34 31 29 32 29 24 16 6
24 25 26 27 28 28 28 28 30 30 31 32 31 29 29 25 22 21 23 26 27 25 25 26 26 27 26 25 25 28 36 38 45 40 38 41 38 35 34 38 29 30 26 17 11
25 25 26 27 28 29 29 29 29 30 30 30 28 28 26 21 21 21 23 26 22 22 25 26 28 28 29 28 27 33 34 36 40 39 42 42 40 40 37 39 32 29 24 20 19
24 25 26 27 28 29 30 30 29 29 30 28 26 26 22 22 22 19 23 22 21 22 24 27 28 29 29 29 30 31 34 34 36 39 42 43 48 43 44 40 37 31 23 21 22
24 25 26 26 28 29 31 31 30 30 28 24 23 23 22 21 20 21 23 20 20 21 22 23 26 25 25 27 24 24 23 25 35 39 39 43 46 43 44 39 39 34 30 28 21
24 24 25 27 28 30 31 32 31 29 23 20 19 21 21 19 20 23 20 19 19 19 22 20 22 24 23 25 19 22 21 19 15 25 29 32 45 48 37 37 40 35 33 30 27
24 25 26 28 29 30 31 31 31 23 20 17 18 20 18 18 20 22 20 20 19 19 18 20 20 21 21 19 24 23 22 24 15 13 16 21 44 38 30 34 39 35 32 32 24
23 24 26 28 30 32 32 32 23 19 17 15 18 20 19 20 23 22 19 20 21 19 19 19 19 22 23 23 24 23 27 23 20 10 11 12 33 29 26 31 32 30 29 29 25
23 23 25 28 30 32 34 27 18 18 19 17 17 20 19 21 22 21 19 19 20 21 21 21 21 24 26 27 26 28 28 21 15 13 4 8 24 17 23 26 26 23 22 23 23
22 23 25 27 29 30 28 21 21 19 19 19 20 20 19 22 17 20 21 20 20 21 24 21 25 29 28 25 22 17 21 21 11 8 22 34 28 26 19 25 19 19 22 21 18
21 21 24 26 28 26 22 21 19 19 22 18 18 18 17 19 19 21 24 21 22 23 24 23 26 28 25 23 27 23 24 27 10 15 26 28 26 19 19 16 12 14 20 20 21
19 21 23 24 24 21 22 19 18 18 21 20 17 18 18 18 19 21 24 21 21 23 25 23 23 26 27 27 27 26 30 25 12 14 23 28 19 19 19 10 8 7 14 17 20
18 19 22 24 19 19 20 19 18 19 23 20 18 17 17 18 18 19 20 20 20 22 22 19 22 27 29 27 24 24 23 13 9 14 20 17 14 18 16 11 10 10 12 17 17
17 18 21 21 19 20 18 18 17 19 27 19 18 17 19 19 20 20 19 19 20 22 21 22 22 24 26 25 21 21 23 20 12 11 14 15 13 16 17 15 18 15 7 8 10
14 16 17 19 18 17 18 17 18 20 22 18 17 19 18 20 21 21 21 20 18 20 19 19 18 20 23 19 16 21 19 16 15 14 16 15 15 9 13 17 17 16 15 14 16
13 15 16 16 17 16 16 17 21 19 19 19 19 18 18 21 20 22 21 22 20 21 22 21 21 21 23 23 20 25 23 15 8 15 14 15 10 10 12 13 14 17 15 15 16
11 13 15 15 14 15 15 18 20 18 17 16 18 19 20 22 21 21 19 20 21 20 20 21 20 25 25 23 20 21 21 16 15 15 15 14 14 15 15 16 17 15 16 18 20
8 14 15 14 13 14 14 17 18 16 17 15 18 21 19 19 19 20 20 19 18 20 19 20 17 20 19 20 22 20 23 18 15 13 16 16 14 12 15 14 13 12 14 16 18
10 12 15 12 11 12 16 18 18 15 15 16 19 17 18 18 19 19 19 18 18 16 17 18 19 19 19 18 19 20 18 18 15 13 15 17 16 15 13 12 13 13 14 17 18
10 13 13 11 11 14 18 18 17 14 15 17 16 17 16 18 17 18 17 17 16 17 16 18 16 18 18 20 20 21 19 19 17 15 15 17 19 14 11 11 13 14 16 17 19
10 17 11 9 12 15 17 15 14 12 13 16 16 15 15 14 17 15 15 15 17 16 17 16 16 17 17 16 16 16 18 17 16 14 14 15 18 11 10 10 12 13 15 16 17
9 13 12 10 14 14 14 12 11 12 13 13 13 12 13 13 15 12 13 13 15 16 16 16 16 19 18 16 15 17 17 16 15 15 13 10 16 12 9 10 11 12 14 16 18
11 15 12 12 15 10 9 10 11 14 14 14 13 12 11 11 9 12 12 13 14 13 14 14 15 15 18 16 16 16 17 16 15 14 11 12 9 11 9 8 10 12 15 17 19
14 16 12 12 13 12 10 11 9 12 14 13 15 10 9 11 9 14 11 11 13 12 13 13 16 15 15 16 17 17 16 17 15 14 13 12 9 8 8 8 9 12 14 17 20
19 17 15 15 14 12 10 11 10 13 11 15 14 5 7 9 8 11 12 11 11 10 12 13 16 15 17 16 18 19 16 14 11 11 11 11 10 7 8 9 10 11 14 18 20
19 19 16 17 17 13 14 12 10 11 13 13 12 12 5 8 11 13 11 12 10 9 9 13 14 16 19 19 20 20 8 8 11 10 8 9 8 6 6 7 8 11 14 17 20
Wind_Direction
356 350 346 344 343 341 342 342 340 339 338 335 334 333 336 340 342 358 355 357 354 348 352 346 344 341 342 333 322 312 289 272 281 279 277 287 288 286 290 274 274 277 280 284 268
351 347 343 341 340 341 339 341 343 341 339 339 339 341 341 344 355 357 1 355 352 352 350 344 338 338 333 327 320 302 292 291 289 286 283 283 278 283 281 278 268 269 276 276 246
348 343 339 336 334 335 340 341 339 340 339 338 339 345 345 353 357 360 360 353 352 357 357 353 349 345 335 329 321 310 294 291 284 288 286 280 281 276 276 267 273 269 266 260 244
345 343 341 339 335 333 336 340 341 339 342 342 345 348 352 4 359 359 359 355 1 0 356 354 349 345 336 329 326 310 305 299 293 289 281 276 277 273 268 267 274 279 273 257 249
345 344 343 341 337 332 332 337 341 343 341 344 348 352 1 359 0 6 1 2 7 3 359 356 353 349 342 338 331 317 312 307 301 291 282 276 268 267 265 267 272 272 269 259 254
343 344 344 343 341 337 333 333 338 340 342 349 353 359 360 360 9 7 3 8 6 3 2 0 355 353 348 344 343 341 328 312 300 294 288 274 266 261 257 270 265 263 264 258 254
342 345 344 341 340 336 332 332 336 340 351 0 5 2 358 4 9 3 8 8 9 7 3 5 4 359 357 353 359 354 349 332 313 301 288 279 262 253 257 265 261 258 258 255 254
337 338 339 337 335 336 334 336 336 349 359 6 8 1 1 8 7 3 8 6 11 10 10 9 12 7 6 0 349 348 347 347 352 347 305 270 258 254 257 257 258 254 255 250 251
335 337 337 335 331 331 332 334 349 358 3 13 6 3 1 3 0 4 8 6 4 14 14 13 17 10 7 360 351 355 345 343 337 329 312 255 261 252 252 253 254 250 255 249 249
334 335 337 335 334 332 328 339 358 3 3 6 5 0 3 357 358 3 10 8 9 8 13 12 13 7 7 5 355 351 350 349 338 2 188 228 257 259 243 260 241 244 252 248 249
333 334 333 335 336 335 342 351 350 351 355 352 350 353 359 356 9 9 7 7 10 11 6 13 12 6 4 6 4 357 354 343 326 357 269 227 236 228 247 256 237 242 249 249 260
331 335 335 337 338 342 351 350 354 353 345 349 351 354 1 4 3 5 2 5 6 7 7 11 12 10 9 11 7 10 6 8 22 170 206 204 211 225 245 252 236 240 249 253 256
331 334 335 338 340 350 352 355 359 358 346 347 353 355 0 7 3 3 2 6 8 7 6 10 15 14 15 14 17 18 18 34 131 172 190 176 224 233 227 245 237 253 262 264 261
329 333 335 336 342 346 346 352 356 358 340 346 356 5 4 5 3 8 9 7 7 7 9 16 19 16 17 22 29 28 38 86 228 214 178 211 230 237 236 232 233 272 293 279 281
324 332 334 340 338 338 345 351 357 354 332 350 354 4 357 2 359 4 8 6 4 4 10 10 16 21 21 28 40 35 335 69 294 245 230 229 254 263 242 236 235 254 293 306 280
323 330 336 336 338 343 346 353 351 340 329 342 351 351 355 357 355 354 1 4 8 4 8 16 23 27 25 35 50 308 22 56 359 263 230 261 249 283 245 237 249 265 272 314 312
321 328 332 338 334 345 349 348 333 328 342 340 344 353 353 349 353 354 358 358 2 0 0 5 20 20 24 24 42 31 16 53 327 275 266 285 284 268 268 274 283 263 286 299 323
320 326 329 333 341 343 346 338 325 335 334 345 345 345 344 345 347 350 354 354 0 3 2 3 8 11 14 24 28 38 42 51 58 270 255 287 273 276 295 291 295 292 300 301 302
327 322 323 330 339 339 338 325 328 333 337 342 341 336 341 345 347 350 352 350 356 359 0 2 9 12 21 25 29 30 35 1 21 340 275 273 275 300 310 323 331 328 331 320 344
316 319 318 329 338 338 323 317 323 332 340 341 332 340 337 342 345 348 349 355 355 2 3 2 0 8 12 22 27 31 41 41 1 4 294 272 272 272 312 325 351 358 351 4 5
316 313 323 326 332 320 309 312 319 329 336 336 333 333 335 339 342 342 346 350 357 355 1 356 2 359 9 12 14 10 17 28 42 330 313 278 267 303 324 351 9 8 9 14 12
303 301 321 319 309 313 306 316 327 335 335 334 335 336 337 341 340 342 344 349 355 358 355 358 1 356 359 10 19 23 13 26 28 44 322 306 272 320 337 353 4 9 10 9 9
291 307 313 308 298 299 316 320 328 330 328 335 330 333 338 341 342 348 347 352 353 355 357 2 358 349 347 358 6 3 2 12 28 28 41 359 292 309 325 340 346 356 1 1 359
288 292 299 289 302 297 299 309 313 317 324 326 332 334 339 342 349 347 349 352 355 1 5 8 357 351 342 349 352 352 348 354 357 3 28 20 39 294 309 333 345 343 357 360 1
274 283 289 291 272 283 286 316 306 310 319 320 322 320 339 344 349 326 340 353 354 358 0 4 348 355 347 344 339 336 336 335 343 356 1 9 78 69 69 342 348 346 346 344 345
261 278 282 290 285 251 276 286 290 305 318 308 308 318 327 335 338 343 331 341 349 360 352 353 343 349 341 345 334 323 328 332 342 346 356 12 1 93 42 36 45 26 3 345 337
256 269 273 277 275 265 265 276 277 296 304 314 294 315 315 321 335 338 346 351 359 357 357 346 344 340 333 335 328 323 316 319 333 338 338 331 358 36 10 16 21 14 3 358 354